Flag for Spain Weather past 2 weeks in Málaga, Spain

Now
63 °F

Partly sunny.


Feels Like: 63 °F
Forecast: 57 / 72 °F
Wind: 9 mph from Southeast

Location: Malaga / Aeropuerto

Current Time: Apr 21, 2015 at 10:01:04 PM

Latest Report: Apr 21, 2015 at 9:30 PM


Visibility: N/A

Pressure: 30.12 "Hg

Humidity: 77%

Dew point: 55 °F

Location of MálagaLocation

Historic Weather in Málaga — Graph

°F

Málaga temperature yesterday

Maximum temperature yesterday: 68 °F (at 11:30 AM)
Minimum temperature yesterday: 50 °F (at 8:00 AM)
Average temperature yesterday: 61 °F

Past Weeks' High & Low Weather Summary

 TemperatureHumidityPressure
High79 °F (Apr 19, 3:00 PM)100% (Apr 14, 7:00 AM)30.24 "Hg (Apr 14, 7:00 AM)
Low50 °F (Apr 20, 8:00 AM)27% (Apr 19, 1:30 PM)29.92 "Hg (Apr 18, 5:00 PM)
Average62 °F73%30.11 "Hg
* Reported Apr 6 9:00 PM — Apr 21 9:00 PM, Málaga, Weather by CustomWeather, © 2015

Note: Actual official high and low records may vary slightly from our data, if they occured in-between our weather recording intervals... More about our weather records

Advertising

Málaga weather history for previous 24 hours

 ConditionsComfort  
Time TempWeatherWind HumidityBarometerVisibility
9:00 PM
Tue, Apr 21
63 °FPartly sunny.9 mph73%30.09 "HgN/A
8:30 PM63 °FPartly sunny.10 mph73%30.09 "HgN/A
8:00 PM63 °FPartly sunny.8 mph77%30.09 "HgN/A
7:30 PM64 °FScattered clouds.10 mph73%30.09 "HgN/A
7:00 PM63 °FScattered clouds.12 mph77%30.09 "HgN/A
6:30 PM66 °FPassing clouds.10 mph68%30.07 "HgN/A
6:00 PM66 °FPassing clouds.13 mph68%30.09 "HgN/A
5:30 PM64 °FPassing clouds.12 mph68%30.09 "HgN/A
5:00 PM66 °FPassing clouds.12 mph68%30.09 "HgN/A
4:30 PM68 °FPassing clouds.13 mph60%30.09 "HgN/A
4:00 PM68 °FPassing clouds.14 mph60%30.12 "HgN/A
3:30 PM68 °FPassing clouds.12 mph60%30.12 "HgN/A
3:00 PM68 °FPassing clouds.12 mph56%30.12 "HgN/A
2:30 PM70 °FPassing clouds.10 mph50%30.09 "HgN/A
2:00 PM68 °FPassing clouds.12 mph53%30.09 "HgN/A
1:30 PM68 °FPassing clouds.9 mph53%30.09 "HgN/A
1:00 PM68 °FPassing clouds.10 mph49%30.09 "HgN/A
12:30 PM70 °FPassing clouds.9 mph46%30.09 "HgN/A
12:00 PM68 °FPassing clouds.9 mph49%30.09 "HgN/A
11:30 AM68 °FPassing clouds.5 mph49%30.09 "HgN/A
11:00 AM68 °FPassing clouds.3 mph53%30.09 "HgN/A
10:30 AM64 °FPassing clouds.No wind60%30.09 "HgN/A
10:00 AM63 °FSunny.2 mph64%30.09 "Hg10 mi
9:30 AM61 °FPassing clouds.3 mph68%30.09 "HgN/A
9:00 AM57 °FPassing clouds.3 mph72%30.09 "HgN/A
8:30 AM54 °FClear.3 mph82%30.09 "Hg10 mi
8:00 AM54 °FClear.6 mph82%30.09 "Hg10 mi
7:30 AM52 °FClear.5 mph82%30.07 "Hg10 mi
7:00 AM52 °FClear.5 mph82%30.07 "Hg10 mi
6:30 AM52 °FClear.5 mph82%30.07 "Hg10 mi
6:00 AM52 °FClear.5 mph82%30.07 "Hg10 mi
5:30 AM52 °FPassing clouds.5 mph82%30.07 "HgN/A
5:00 AM54 °FClear.6 mph77%30.07 "Hg10 mi
4:30 AM54 °FClear.2 mph77%30.07 "Hg10 mi
4:00 AM55 °FClear.6 mph77%30.07 "Hg10 mi
3:30 AM54 °FPassing clouds.7 mph82%30.07 "HgN/A
3:00 AM54 °FClear.6 mph82%30.07 "Hg10 mi
2:30 AM54 °FClear.7 mph82%30.09 "Hg10 mi
2:00 AM55 °FClear.7 mph77%30.09 "Hg10 mi
1:30 AM55 °FClear.5 mph77%30.09 "Hg10 mi
1:00 AM55 °FClear.6 mph82%30.12 "Hg10 mi
12:30 AM55 °FClear.6 mph82%30.12 "Hg10 mi
12:00 AM54 °FClear.1 mph82%30.12 "Hg10 mi
11:30 PM
Mon, Apr 20
59 °FClear.No wind72%30.12 "Hg10 mi
11:00 PM59 °FClear.1 mph72%30.12 "Hg10 mi
10:30 PM61 °FClear.No wind68%30.12 "Hg10 mi
10:00 PM61 °FClear.No wind72%30.09 "Hg10 mi
Weather by CustomWeather, © 2015

See weather overviewHow to use our weather pages